Paso Robles, CA

10:01 PM PDT on September 24, 2017 (GMT -0700)
Paso Robles Municipal

Weather History for KPRB - September, 2014

Change the Weather History Date:

Friday, September 19, 2014

  Actual Average Record
Temperature  
Mean Temperature 76 °F 69 °F  
Max Temperature 89 °F 88 °F 107 °F (2000)
Min Temperature 63 °F 50 °F 40 °F (1978)
Degree Days  
Heating Degree Days 0 1  
Month to date heating degree days 0 7  
Since 1 July heating degree days 0 15  
Cooling Degree Days 11 5  
Month to date cooling degree days 191 116  
Year to date cooling degree days 1198 849  
Growing Degree Days 24 (Base 50)    
Moisture  
Dew Point 56 °F    
Average Humidity 58    
Maximum Humidity 84    
Minimum Humidity 31    
Precipitation  
Precipitation 0.00 in 0.01 in 0.16 in (1966)
Month to date precipitation 0.00 0.09  
Year to date precipitation 4.46 8.99  
Since 1 July precipitation T  
Sea Level Pressure  
Sea Level Pressure 29.88 in    
Wind  
Wind Speed 7 mph (WSW)    
Max Wind Speed 20 mph    
Max Gust Speed 30 mph    
Visibility 10 miles    
Events      
T = Trace of Precipitation, MM = Missing Value Source: NWS Daily Summary

Daily Weather History Graph

Daily Weather History Graph

Search for Another Location

Airport or City:

Trip Planner

Search our weather history database for the weather conditions in past years. The results will help you decide how hot, cold, wet, or windy it might be!

Date:

Astronomy

Sep. 19, 2014 Rise Set
Actual Time 6:48 AM PDT 7:03 PM PDT
Civil Twilight 6:22 AM PDT 7:29 PM PDT
Nautical Twilight 5:52 AM PDT 7:58 PM PDT
Astronomical Twilight 5:22 AM PDT 8:29 PM PDT
Moon 2:44 AM PDT (9/19) 4:29 PM PDT (9/19)
Length of Visible Light 13h 06m
Length of Day
12h 15m
Waning Crescent, 17% of the Moon is Illuminated
Sep 19
Waning Crescent
Sep 23
New
Oct 1
First Quarter
Oct 8
Full
Oct 15
Last Quarter

Hourly Weather History & Observations

Time (PDT) Temp. Heat Index Dew Point Humidity Pressure Visibility Wind Dir Wind Speed Gust Speed Precip Events Conditions
12:53 AM 62.1 °F - 57.0 °F 84% 29.88 in 10.0 mi WSW 4.6 mph - N/A   Clear
1:53 AM 62.1 °F - 57.0 °F 84% 29.88 in 10.0 mi West 6.9 mph - N/A   Clear
2:12 AM 62.1 °F - 57.0 °F 84% 29.90 in 10.0 mi West 4.6 mph - N/A   Scattered Clouds
2:23 AM 62.1 °F - 57.0 °F 84% 29.90 in 10.0 mi SSW 5.8 mph - N/A   Mostly Cloudy
2:53 AM 62.1 °F - 57.0 °F 84% 29.89 in 10.0 mi SW 4.6 mph - N/A   Overcast
3:53 AM 62.1 °F - 57.0 °F 84% 29.88 in 10.0 mi SW 3.5 mph - N/A   Overcast
4:53 AM 63.0 °F - 57.9 °F 84% 29.88 in 10.0 mi Calm Calm - N/A   Overcast
5:29 AM 63.0 °F - 57.0 °F 81% 29.91 in 10.0 mi West 4.6 mph - N/A   Overcast
5:53 AM 63.0 °F - 57.0 °F 81% 29.89 in 10.0 mi NW 4.6 mph - N/A   Overcast
6:53 AM 63.0 °F - 57.0 °F 81% 29.91 in 10.0 mi North 4.6 mph - N/A   Overcast
7:53 AM 63.0 °F - 57.0 °F 81% 29.92 in 10.0 mi Calm Calm - N/A   Overcast
8:53 AM 64.0 °F - 57.0 °F 78% 29.93 in 10.0 mi NW 6.9 mph - N/A   Overcast
9:24 AM 64.9 °F - 57.0 °F 75% 29.94 in - North - - N/A   Unknown
10:53 AM - - - N/A% 29.93 in - North - - N/A   Unknown
11:53 AM 72.0 °F - 57.0 °F 59% 29.91 in 10.0 mi Variable 3.5 mph - N/A   Clear
12:53 PM 78.1 °F - 57.0 °F 48% 29.88 in 10.0 mi NW 3.5 mph - N/A   Clear
1:53 PM 82.0 °F 81.6 °F 55.9 °F 41% 29.86 in 10.0 mi Variable 5.8 mph - N/A   Clear
2:53 PM 84.0 °F 82.9 °F 55.0 °F 37% 29.83 in 10.0 mi Variable 4.6 mph - N/A   Clear
3:53 PM 87.1 °F 84.9 °F 53.1 °F 31% 29.81 in 10.0 mi Variable 3.5 mph - N/A   Clear
4:53 PM 84.9 °F 83.6 °F 55.0 °F 36% 29.80 in 10.0 mi SSW 12.7 mph 21.9 mph N/A   Clear
5:53 PM 79.0 °F - 55.0 °F 44% 29.82 in 10.0 mi SSW 17.3 mph - N/A   Clear
7:53 PM 69.1 °F - 55.9 °F 63% 29.86 in 10.0 mi SSW 11.5 mph - N/A   Clear
8:53 PM 66.9 °F - 55.9 °F 68% 29.89 in 10.0 mi SSW 11.5 mph - N/A   Clear
9:53 PM 64.9 °F - 55.9 °F 73% 29.90 in 10.0 mi SSW 6.9 mph - N/A   Clear
10:53 PM 66.0 °F - 55.9 °F 70% 29.90 in 10.0 mi NNW 4.6 mph - N/A   Clear
11:53 PM 64.9 °F - 55.0 °F 70% 29.89 in 10.0 mi West 6.9 mph - N/A   Clear